| time (UTC) | temp C | wind direction | speed KPH | gust KPH | rain 1hr cm | rain 24hr cm | rain mn cm | humidity % | barometer mb |
| 20260503020015 | 12 | 3 | 0.0 | 0.0 | 0.00 | 0.00 | 0.00 | 81 | 1021.5 |
| 20260503014528 | 12 | 319 | 0.0 | 1.6 | 0.00 | 0.00 | 0.00 | 82 | 1021.4 |
| 20260503013055 | 11 | 307 | 0.0 | 0.0 | 0.00 | 0.00 | 0.00 | 84 | 1021.5 |
| 20260503011522 | 11 | 304 | 0.0 | 0.0 | 0.00 | 0.00 | 0.00 | 84 | 1021.5 |
| 20260503010039 | 11 | 314 | 0.0 | 0.0 | 0.00 | 0.00 | 0.00 | 84 | 1021.7 |
| 20260503004504 | 11 | 208 | 0.0 | 0.0 | 0.00 | 0.00 | 0.00 | 83 | 1021.9 |
| 20260503003030 | 11 | 208 | 0.0 | 0.0 | 0.00 | 0.00 | 0.00 | 80 | 1022.0 |
| 20260503001539 | 11 | 255 | 0.0 | 0.0 | 0.00 | 0.00 | 0.00 | 80 | 1022.2 |
| 20260503000057 | 11 | 259 | 0.0 | 0.0 | 0.00 | 0.00 | 0.00 | 84 | 1022.4 |
| 20260502234534 | 11 | 259 | 0.0 | 0.0 | 0.00 | 0.00 | 0.00 | 84 | 1022.4 |
| 20260502233056 | 11 | 259 | 0.0 | 0.0 | 0.00 | 0.00 | 0.00 | 84 | 1022.4 |
| 20260502231532 | 11 | 259 | 0.0 | 0.0 | 0.00 | 0.00 | 0.00 | 83 | 1022.5 |
| 20260502230100 | 11 | 259 | 0.0 | 0.0 | 0.00 | 0.00 | 0.00 | 83 | 1022.5 |
| 20260502224523 | 11 | 259 | 0.0 | 0.0 | 0.00 | 0.00 | 0.00 | 82 | 1022.5 |
| 20260502223052 | 11 | 259 | 0.0 | 0.0 | 0.00 | 0.00 | 0.00 | 81 | 1022.7 |
| 20260502221519 | 11 | 259 | 0.0 | 0.0 | 0.00 | 0.00 | 0.00 | 80 | 1022.6 |
| 20260502220033 | 12 | 259 | 0.0 | 0.0 | 0.00 | 0.00 | 0.00 | 80 | 1022.5 |
| 20260502214504 | 12 | 259 | 0.0 | 0.0 | 0.00 | 0.00 | 0.00 | 79 | 1022.6 |
| 20260502213039 | 12 | 259 | 0.0 | 0.0 | 0.00 | 0.00 | 0.00 | 78 | 1022.5 |
| 20260502211604 | 13 | 259 | 0.0 | 0.0 | 0.00 | 0.00 | 0.00 | 78 | 1022.4 |
| 20260502210133 | 13 | 259 | 0.0 | 0.0 | 0.00 | 0.00 | 0.00 | 77 | 1022.5 |
| 20260502204528 | 13 | 259 | 0.0 | 0.0 | 0.00 | 0.00 | 0.00 | 77 | 1022.6 |
| 20260502203057 | 13 | 242 | 0.0 | 0.0 | 0.00 | 0.00 | 0.00 | 76 | 1022.5 |
| 20260502201557 | 14 | 242 | 0.0 | 0.0 | 0.00 | 0.00 | 0.00 | 76 | 1022.6 |
| 20260502200130 | 14 | 242 | 0.0 | 0.0 | 0.00 | 0.00 | 0.00 | 75 | 1022.4 |
| 20260502194523 | 15 | 242 | 0.0 | 0.0 | 0.00 | 0.00 | 0.00 | 74 | 1022.3 |
| 20260502193053 | 15 | 242 | 0.0 | 0.0 | 0.00 | 0.00 | 0.00 | 72 | 1022.1 |
| 20260502191519 | 16 | 242 | 0.0 | 0.0 | 0.00 | 0.00 | 0.00 | 70 | 1022.1 |
| 20260502184513 | 18 | 242 | 0.0 | 0.0 | 0.00 | 0.00 | 0.00 | 67 | 1022.0 |
| 20260502183025 | 18 | 242 | 0.0 | 0.0 | 0.00 | 0.00 | 0.00 | 64 | 1021.9 |
| 20260502181538 | 20 | 242 | 0.0 | 0.0 | 0.00 | 0.00 | 0.00 | 59 | 1021.9 |
| 20260502163046 | 23 | 242 | 0.0 | 8.0 | 0.00 | 0.00 | 0.00 | 45 | 1021.9 |
| 20260502161545 | 23 | 235 | 0.0 | 1.6 | 0.00 | 0.00 | 0.00 | 43 | 1022.0 |
| 20260502160105 | 23 | 186 | 0.0 | 1.6 | 0.00 | 0.00 | 0.00 | 43 | 1021.9 |
| 20260502151556 | 23 | 256 | 0.0 | 8.0 | 0.00 | 0.00 | 0.00 | 45 | 1022.3 |
| 20260502123054 | 22 | 245 | 0.0 | 3.2 | 0.00 | 0.00 | 0.00 | 46 | 1024.7 |
| 20260502121517 | 22 | 177 | 0.0 | 1.6 | 0.00 | 0.00 | 0.00 | 47 | 1024.9 |
| 20260502114542 | 21 | 146 | 0.0 | 0.0 | 0.00 | 0.00 | 0.00 | 46 | 1025.4 |
| 20260502113008 | 21 | 179 | 0.0 | 0.0 | 0.00 | 0.00 | 0.00 | 45 | 1025.6 |
| 20260502111535 | 20 | 246 | 1.6 | 8.0 | 0.00 | 0.00 | 0.00 | 46 | 1025.8 |
| 20260502110057 | 20 | 267 | 0.0 | 14.5 | 0.00 | 0.00 | 0.00 | 50 | 1026.1 |
| 20260502104511 | 20 | 251 | 1.6 | 12.9 | 0.00 | 0.00 | 0.00 | 48 | 1026.2 |
| 20260502103022 | 20 | 239 | 0.0 | 11.3 | 0.00 | 0.00 | 0.00 | 50 | 1026.6 |
| 20260502101534 | 20 | 246 | 1.6 | 8.0 | 0.00 | 0.00 | 0.00 | 51 | 1026.8 |
| 20260502091509 | 18 | 235 | 0.0 | 6.4 | 0.00 | 0.00 | 0.00 | 63 | 1027.8 |
| 20260502070114 | 15 | 346 | 0.0 | 0.0 | 0.00 | 0.00 | 0.00 | 74 | 1028.5 |
| 20260502064526 | 13 | 317 | 0.0 | 0.0 | 0.00 | 0.00 | 0.00 | 77 | 1028.5 |
| 20260502063056 | 13 | 8 | 0.0 | 1.6 | 0.00 | 0.00 | 0.00 | 77 | 1028.6 |
| 20260502061517 | 12 | 307 | 0.0 | 1.6 | 0.00 | 0.00 | 0.00 | 81 | 1028.5 |
| 20260502060018 | 12 | 226 | 0.0 | 0.0 | 0.00 | 0.00 | 0.00 | 83 | 1028.7 |
| 20260502054536 | 11 | 216 | 0.0 | 0.0 | 0.00 | 0.00 | 0.00 | 83 | 1028.8 |
| 20260502053048 | 11 | 216 | 0.0 | 0.0 | 0.00 | 0.00 | 0.00 | 81 | 1028.5 |
| 20260502051509 | 10 | 216 | 0.0 | 0.0 | 0.00 | 0.00 | 0.00 | 84 | 1028.5 |
| 20260502050034 | 8 | 216 | 0.0 | 0.0 | 0.00 | 0.00 | 0.00 | 88 | 1028.6 |
| 20260502044552 | 7 | 216 | 0.0 | 0.0 | 0.00 | 0.00 | 0.00 | 89 | 1028.6 |
| 20260502043101 | 7 | 216 | 0.0 | 0.0 | 0.00 | 0.00 | 0.00 | 89 | 1028.6 |
| 20260502041509 | 7 | 216 | 0.0 | 0.0 | 0.00 | 0.00 | 0.00 | 89 | 1028.5 |
| 20260502040026 | 7 | 216 | 0.0 | 0.0 | 0.00 | 0.00 | 0.00 | 89 | 1028.3 |
| 20260502034554 | 7 | 216 | 0.0 | 0.0 | 0.00 | 0.00 | 0.00 | 88 | 1028.3 |
| 20260502033018 | 8 | 216 | 0.0 | 0.0 | 0.00 | 0.00 | 0.00 | 87 | 1028.3 |
| 20260502031550 | 8 | 216 | 0.0 | 0.0 | 0.00 | 0.00 | 0.00 | 86 | 1028.2 |
| 20260502030105 | 8 | 216 | 0.0 | 0.0 | 0.00 | 0.00 | 0.00 | 84 | 1028.3 |
| 20260502024527 | 8 | 216 | 0.0 | 0.0 | 0.00 | 0.00 | 0.00 | 84 | 1028.2 |
| 20260502023026 | 8 | 216 | 0.0 | 0.0 | 0.00 | 0.00 | 0.00 | 85 | 1028.2 |